Time,TemperatureF,DewpointF,PressureIn,WindDirection,WindDirectionDegrees,WindSpeedMPH,WindSpeedGustMPH,Humidity,HourlyPrecipIn,Conditions,Clouds,dailyrainin,SoftwareType,DateUTC
2014-01-02 00:09:00,17.6,14.0,30.35,NE,38,0.0,3.0,86,0.00,,,0.00,weatherlink.com 1.10,2014-01-02 05:09:00,
2014-01-02 00:24:00,17.3,14.0,30.34,North,355,0.0,3.0,86,0.00,,,0.00,weatherlink.com 1.10,2014-01-02 05:24:00,
2014-01-02 00:39:00,17.3,14.0,30.34,North,355,0.0,2.0,87,0.00,,,0.00,weatherlink.com 1.10,2014-01-02 05:39:00,
2014-01-02 00:54:00,17.1,14.0,30.34,NNE,22,0.0,3.0,86,0.00,,,0.00,weatherlink.com 1.10,2014-01-02 05:54:00,
2014-01-02 01:09:00,16.9,13.0,30.33,NE,45,0.0,5.0,86,0.00,,,0.00,weatherlink.com 1.10,2014-01-02 06:09:00,
2014-01-02 01:24:00,16.7,14.0,30.33,NNE,23,1.0,3.0,87,0.00,,,0.00,weatherlink.com 1.10,2014-01-02 06:24:00,
2014-01-02 01:40:00,16.6,14.0,30.33,NNE,23,0.0,1.0,88,0.00,,,0.00,weatherlink.com 1.10,2014-01-02 06:40:00,
2014-01-02 01:55:00,16.4,14.0,30.34,North,11,0.0,3.0,88,0.00,,,0.00,weatherlink.com 1.10,2014-01-02 06:55:00,
2014-01-02 02:10:00,16.3,14.0,30.33,NNE,30,0.0,2.0,89,0.00,,,0.00,weatherlink.com 1.10,2014-01-02 07:10:00,
2014-01-02 02:25:00,16.3,14.0,30.34,NNE,30,0.0,1.0,90,0.00,,,0.00,weatherlink.com 1.10,2014-01-02 07:25:00,
2014-01-02 02:40:00,16.3,14.0,30.34,NNE,30,0.0,1.0,90,0.00,,,0.00,weatherlink.com 1.10,2014-01-02 07:40:00,
2014-01-02 02:55:00,16.3,14.0,30.34,NNE,30,0.0,0.0,90,0.00,,,0.00,weatherlink.com 1.10,2014-01-02 07:55:00,
2014-01-02 03:10:00,16.0,13.0,30.33,NNW,334,0.0,2.0,89,0.00,,,0.00,weatherlink.com 1.10,2014-01-02 08:10:00,
2014-01-02 03:25:00,15.3,12.0,30.32,NE,56,2.0,5.0,88,0.00,,,0.00,weatherlink.com 1.10,2014-01-02 08:25:00,
2014-01-02 03:40:00,14.3,11.0,30.32,NE,43,0.0,4.0,88,0.00,,,0.00,weatherlink.com 1.10,2014-01-02 08:40:00,
2014-01-02 03:55:00,13.3,10.0,30.32,ENE,67,4.0,7.0,87,0.00,,,0.00,weatherlink.com 1.10,2014-01-02 08:55:00,
2014-01-02 04:10:00,12.1,9.0,30.31,NNW,338,1.0,6.0,87,0.00,,,0.00,weatherlink.com 1.10,2014-01-02 09:10:00,
2014-01-02 04:25:00,11.7,9.0,30.30,North,350,0.0,5.0,88,0.00,,,0.00,weatherlink.com 1.10,2014-01-02 09:25:00,
2014-01-02 04:40:00,11.4,9.0,30.30,North,355,2.0,4.0,88,0.00,,,0.00,weatherlink.com 1.10,2014-01-02 09:40:00,
2014-01-02 04:55:00,10.8,8.0,30.30,NNW,337,2.0,7.0,87,0.00,,,0.00,weatherlink.com 1.10,2014-01-02 09:55:00,
2014-01-02 05:10:00,10.5,8.0,30.30,ENE,60,0.0,4.0,88,0.00,,,0.00,weatherlink.com 1.10,2014-01-02 10:10:00,
2014-01-02 05:25:00,10.4,8.0,30.30,NNE,31,0.0,3.0,88,0.00,,,0.00,weatherlink.com 1.10,2014-01-02 10:25:00,
2014-01-02 05:40:00,10.2,7.0,30.30,NE,43,0.0,6.0,88,0.00,,,0.00,weatherlink.com 1.10,2014-01-02 10:40:00,
2014-01-02 05:55:00,9.9,7.0,30.30,North,360,0.0,4.0,88,0.00,,,0.00,weatherlink.com 1.10,2014-01-02 10:55:00,
2014-01-02 06:10:00,9.9,7.0,30.30,North,5,0.0,2.0,88,0.00,,,0.00,weatherlink.com 1.10,2014-01-02 11:10:00,
2014-01-02 06:25:00,9.7,7.0,30.30,North,5,1.0,2.0,88,0.00,,,0.00,weatherlink.com 1.10,2014-01-02 11:25:00,
2014-01-02 06:40:00,9.5,7.0,30.30,NE,34,1.0,3.0,88,0.00,,,0.00,weatherlink.com 1.10,2014-01-02 11:40:00,
2014-01-02 06:55:00,8.9,6.0,30.30,NNE,25,0.0,4.0,88,0.00,,,0.00,weatherlink.com 1.10,2014-01-02 11:55:00,
2014-01-02 07:10:00,8.4,5.0,30.30,NNE,30,2.0,6.0,87,0.00,,,0.00,weatherlink.com 1.10,2014-01-02 12:10:00,
2014-01-02 07:25:00,8.0,5.0,30.29,NE,37,0.0,3.0,88,0.00,,,0.00,weatherlink.com 1.10,2014-01-02 12:25:00,
2014-01-02 07:40:00,7.8,5.0,30.29,NNE,32,1.0,3.0,88,0.00,,,0.00,weatherlink.com 1.10,2014-01-02 12:40:00,
2014-01-02 07:55:00,7.7,5.0,30.28,NE,38,0.0,3.0,88,0.00,,,0.00,weatherlink.com 1.10,2014-01-02 12:55:00,
2014-01-02 08:10:00,7.5,4.0,30.28,NNE,22,0.0,3.0,87,0.00,,,0.00,weatherlink.com 1.10,2014-01-02 13:10:00,
2014-01-02 08:25:00,7.3,4.0,30.28,NNE,28,0.0,3.0,87,0.00,,,0.00,weatherlink.com 1.10,2014-01-02 13:25:00,
2014-01-02 08:40:00,7.2,4.0,30.29,ENE,63,0.0,2.0,87,0.00,,,0.00,weatherlink.com 1.10,2014-01-02 13:40:00,
2014-01-02 08:55:00,7.2,4.0,30.28,NE,53,0.0,2.0,87,0.00,,,0.00,weatherlink.com 1.10,2014-01-02 13:55:00,
2014-01-02 09:10:00,7.2,4.0,30.28,North,355,0.0,3.0,87,0.00,,,0.00,weatherlink.com 1.10,2014-01-02 14:10:00,
2014-01-02 09:25:00,7.2,4.0,30.28,NE,41,1.0,3.0,87,0.00,,,0.00,weatherlink.com 1.10,2014-01-02 14:25:00,
2014-01-02 09:40:00,7.2,4.0,30.27,NNW,338,0.0,3.0,87,0.00,,,0.00,weatherlink.com 1.10,2014-01-02 14:40:00,
2014-01-02 09:56:00,6.9,3.0,30.27,North,360,0.0,3.0,85,0.00,,,0.00,weatherlink.com 1.10,2014-01-02 14:56:00,
2014-01-02 10:11:00,7.1,4.0,30.26,NNE,17,1.0,4.0,86,0.00,,,0.00,weatherlink.com 1.10,2014-01-02 15:11:00,
2014-01-02 10:26:00,7.1,4.0,30.25,North,5,1.0,3.0,85,0.00,,,0.00,weatherlink.com 1.10,2014-01-02 15:26:00,
2014-01-02 10:41:00,7.0,3.0,30.24,NE,39,0.0,3.0,85,0.00,,,0.00,weatherlink.com 1.10,2014-01-02 15:41:00,
2014-01-02 10:56:00,7.3,4.0,30.23,NE,44,0.0,3.0,86,0.00,,,0.00,weatherlink.com 1.10,2014-01-02 15:56:00,
2014-01-02 11:11:00,7.3,4.0,30.21,NNE,30,0.0,3.0,86,0.00,,,0.00,weatherlink.com 1.10,2014-01-02 16:11:00,
2014-01-02 11:26:00,7.6,4.0,30.20,NE,46,0.0,3.0,86,0.00,,,0.00,weatherlink.com 1.10,2014-01-02 16:26:00,
2014-01-02 11:41:00,8.1,5.0,30.18,NE,39,0.0,4.0,85,0.00,,,0.00,weatherlink.com 1.10,2014-01-02 16:41:00,
2014-01-02 11:56:00,8.4,5.0,30.16,North,5,1.0,2.0,85,0.00,,,0.00,weatherlink.com 1.10,2014-01-02 16:56:00,
2014-01-02 12:11:00,8.8,5.0,30.14,North,360,0.0,3.0,85,0.00,,,0.00,weatherlink.com 1.10,2014-01-02 17:11:00,
2014-01-02 12:26:00,8.9,5.0,30.13,NNW,336,1.0,4.0,85,0.00,,,0.00,weatherlink.com 1.10,2014-01-02 17:26:00,
2014-01-02 12:41:00,9.1,6.0,30.14,NE,42,1.0,6.0,85,0.00,,,0.00,weatherlink.com 1.10,2014-01-02 17:41:00,
2014-01-02 12:56:00,8.7,5.0,30.12,NE,49,1.0,4.0,84,0.00,,,0.00,weatherlink.com 1.10,2014-01-02 17:56:00,
2014-01-02 13:11:00,8.6,5.0,30.11,North,10,0.0,4.0,85,0.00,,,0.00,weatherlink.com 1.10,2014-01-02 18:11:00,
2014-01-02 13:26:00,8.7,5.0,30.11,NE,46,0.0,2.0,85,0.00,,,0.00,weatherlink.com 1.10,2014-01-02 18:26:00,
2014-01-02 13:41:00,8.9,5.0,30.09,NNE,17,1.0,2.0,85,0.00,,,0.00,weatherlink.com 1.10,2014-01-02 18:41:00,
2014-01-02 13:56:00,8.7,5.0,30.09,NNE,30,3.0,3.0,85,0.00,,,0.00,weatherlink.com 1.10,2014-01-02 18:56:00,
2014-01-02 14:11:00,8.2,5.0,30.07,SE,146,0.0,4.0,85,0.00,,,0.00,weatherlink.com 1.10,2014-01-02 19:11:00,
2014-01-02 14:26:00,7.7,4.0,30.06,NE,45,1.0,5.0,85,0.00,,,0.00,weatherlink.com 1.10,2014-01-02 19:26:00,
2014-01-02 14:41:00,7.3,4.0,30.05,NNE,30,0.0,7.0,85,0.00,,,0.00,weatherlink.com 1.10,2014-01-02 19:41:00,
2014-01-02 14:56:00,7.0,4.0,30.06,NNE,32,1.0,4.0,86,0.00,,,0.00,weatherlink.com 1.10,2014-01-02 19:56:00,
2014-01-02 15:11:00,6.7,3.0,30.05,North,5,0.0,4.0,86,0.00,,,0.00,weatherlink.com 1.10,2014-01-02 20:11:00,
2014-01-02 15:26:00,6.8,4.0,30.05,NE,45,1.0,3.0,87,0.00,,,0.00,weatherlink.com 1.10,2014-01-02 20:26:00,
2014-01-02 15:41:00,6.9,4.0,30.05,North,11,0.0,3.0,87,0.00,,,0.00,weatherlink.com 1.10,2014-01-02 20:41:00,
2014-01-02 15:56:00,7.0,4.0,30.05,NNE,13,1.0,3.0,87,0.00,,,0.00,weatherlink.com 1.10,2014-01-02 20:56:00,
2014-01-02 16:11:00,7.2,4.0,30.05,NNW,333,0.0,4.0,88,0.00,,,0.00,weatherlink.com 1.10,2014-01-02 21:11:00,
2014-01-02 16:26:00,7.3,5.0,30.04,North,5,0.0,3.0,88,0.00,,,0.00,weatherlink.com 1.10,2014-01-02 21:26:00,
2014-01-02 16:41:00,7.3,5.0,30.03,NNE,20,0.0,1.0,88,0.00,,,0.00,weatherlink.com 1.10,2014-01-02 21:41:00,
2014-01-02 16:56:00,7.2,4.0,30.02,NE,36,1.0,4.0,87,0.00,,,0.00,weatherlink.com 1.10,2014-01-02 21:56:00,
2014-01-02 17:11:00,7.1,4.0,30.02,NNE,27,1.0,3.0,87,0.00,,,0.00,weatherlink.com 1.10,2014-01-02 22:11:00,
2014-01-02 17:27:00,6.9,4.0,30.02,NNW,346,2.0,3.0,87,0.00,,,0.00,weatherlink.com 1.10,2014-01-02 22:27:00,
2014-01-02 17:42:00,6.7,4.0,30.01,NE,55,0.0,4.0,87,0.00,,,0.00,weatherlink.com 1.10,2014-01-02 22:42:00,
2014-01-02 17:57:00,6.7,4.0,30.01,North,350,2.0,3.0,87,0.00,,,0.00,weatherlink.com 1.10,2014-01-02 22:57:00,
2014-01-02 18:12:00,6.5,4.0,30.02,North,355,0.0,3.0,87,0.00,,,0.00,weatherlink.com 1.10,2014-01-02 23:12:00,
2014-01-02 18:42:00,6.0,3.0,30.01,NNW,341,0.0,4.0,87,0.00,,,0.00,weatherlink.com 1.10,2014-01-02 23:42:00,
2014-01-02 18:57:00,5.6,2.0,30.00,ENE,63,5.0,7.0,86,0.00,,,0.00,weatherlink.com 1.10,2014-01-02 23:57:00,
2014-01-02 19:12:00,5.4,2.0,30.01,NNW,343,0.0,3.0,87,0.00,,,0.00,weatherlink.com 1.10,2014-01-03 00:12:00,
2014-01-02 19:42:00,5.4,2.0,30.00,East,101,0.0,3.0,87,0.00,,,0.00,weatherlink.com 1.10,2014-01-03 00:42:00,
2014-01-02 19:57:00,5.0,2.0,29.99,ENE,59,1.0,7.0,86,0.00,,,0.00,weatherlink.com 1.10,2014-01-03 00:57:00,
2014-01-02 20:12:00,4.9,2.0,29.99,NNE,13,1.0,5.0,86,0.00,,,0.00,weatherlink.com 1.10,2014-01-03 01:12:00,
2014-01-02 20:27:00,4.7,2.0,29.98,North,5,0.0,3.0,87,0.00,,,0.00,weatherlink.com 1.10,2014-01-03 01:27:00,
2014-01-02 20:42:00,4.7,2.0,29.98,SW,217,0.0,2.0,87,0.00,,,0.00,weatherlink.com 1.10,2014-01-03 01:42:00,
2014-01-02 20:57:00,4.5,2.0,29.97,WSW,237,0.0,3.0,87,0.00,,,0.00,weatherlink.com 1.10,2014-01-03 01:57:00,
2014-01-02 21:12:00,4.6,1.0,29.97,East,93,0.0,2.0,86,0.00,,,0.00,weatherlink.com 1.10,2014-01-03 02:12:00,
2014-01-02 21:27:00,4.7,1.0,29.97,ENE,69,0.0,2.0,86,0.00,,,0.00,weatherlink.com 1.10,2014-01-03 02:27:00,
2014-01-02 21:42:00,4.7,1.0,29.96,NE,34,0.0,3.0,86,0.00,,,0.00,weatherlink.com 1.10,2014-01-03 02:42:00,
2014-01-02 21:57:00,4.9,2.0,29.95,North,5,0.0,1.0,87,0.00,,,0.00,weatherlink.com 1.10,2014-01-03 02:57:00,
2014-01-02 22:12:00,4.7,2.0,29.95,East,90,0.0,1.0,87,0.00,,,0.00,weatherlink.com 1.10,2014-01-03 03:12:00,
2014-01-02 22:27:00,4.4,1.0,29.95,East,90,2.0,3.0,87,0.00,,,0.00,weatherlink.com 1.10,2014-01-03 03:27:00,
2014-01-02 22:42:00,4.0,1.0,29.95,NE,41,1.0,5.0,86,0.00,,,0.00,weatherlink.com 1.10,2014-01-03 03:42:00,
2014-01-02 22:57:00,3.8,1.0,29.94,NW,319,0.0,3.0,86,0.00,,,0.00,weatherlink.com 1.10,2014-01-03 03:57:00,
2014-01-02 23:12:00,3.7,1.0,29.94,SSE,168,0.0,1.0,87,0.00,,,0.00,weatherlink.com 1.10,2014-01-03 04:12:00,
2014-01-02 23:27:00,3.6,0.0,29.94,SW,220,0.0,5.0,86,0.00,,,0.00,weatherlink.com 1.10,2014-01-03 04:27:00,
2014-01-02 23:42:00,3.5,1.0,29.93,NNE,15,0.0,2.0,87,0.00,,,0.00,weatherlink.com 1.10,2014-01-03 04:42:00,
2014-01-02 23:57:00,3.3,0.0,29.94,SSE,159,0.0,3.0,87,0.00,,,0.00,weatherlink.com 1.10,2014-01-03 04:57:00,